Location: Carrizalito
(10.3833°N, 67.0217°W)
Time: 04:25:24
(UTC+00:00)

Meteor 1-11 Rocket - Pass Details

Date: 07 July 2022
Orbit: 830 x 916 km, 81.2° (Epoch: 13 August)

Event Time Altitude Azimuth Distance (km) Brightness Sun altitude
Exits shadow 08:53:33 29° 254° (WSW) 1,603 4.6 -18.2°
Maximum altitude 08:54:48 32° 277° (W) 1,522 4.6 -18.0°
Drops below altitude 10° 09:00:00 10° 338° (NNW) 2,589 6.3 -16.8°
Sets 09:02:43 0° 349° (NNW) 3,522 7.1 -16.2°
